Regional Weather Roundup
Issued by NWS

Current Version | Previous Version | Text Only | Print | Product List | Glossary On
Versions: 1 2 3 4 5 6 7 8 9 10 11 12 13 14 15 16 17 18 19 20 21 22 23 24 25 26 27 28 29 30 31 32 33 34 35 36 37 38 39 40 41 42 43 44 45 46 47 48 49 50
000
ASUS44 KFWD 281015
RWRTX
NORTH TEXAS HOURLY WEATHER ROUNDUP
NATIONAL WEATHER SERVICE FORT WORTH TX
500 AM CDT SAT MAY 28 2016

NOTE: "FAIR" INDICATES FEW OR NO CLOUDS BELOW 12,000 FEET WITH NO
SIGNIFICANT WEATHER AND/OR OBSTRUCTIONS TO VISIBILITY.

TXZ118-119-281100-
DALLAS/FORT WORTH METROPLEX

CITY           SKY/WX    TMP DP  RH WIND       PRES   REMARKS
DFW AIRPORT    CLOUDY    67  64  90 SE10      29.84R
DALLAS LOVE    DRIZZLE   67  65  93 S10       29.85R FOG
FTW MEACHAM    CLOUDY    67  64  90 SE10      29.84R
DAL-EXECUTIVE  CLOUDY    66  64  93 SE9       29.85R FOG
FTW-ALLIANCE   CLOUDY    66  64  93 S8        29.84R
FTW-NAS-JRB    CLOUDY    67  65  93 SE8       29.85R
FTW-SPINKS     CLOUDY    65  65  97 SE9       29.87R FOG
ARLINGTON      CLOUDY    69  65  86 SE8       29.86R FOG
GRAND PRAIRIE  CLOUDY    66  66 100 SE7       29.86R
ADDISON        CLOUDY    67  67 100 S9        29.87R
MESQUITE       CLOUDY    66  65  99 SE8       29.86R
LANCASTER      CLOUDY    66  64  93 S7        29.86R FOG
$$

TXZ091>094-102>105-117-120-121-131>134-281100-
NORTH CENTRAL TEXAS

CITY           SKY/WX    TMP DP  RH WIND       PRES   REMARKS
SHRMAN/DENISON CLOUDY    63  59  87 SE8       29.86R
GAINESVILLE    CLOUDY    66  63  90 S10       29.86R
BOWIE          CLOUDY    65  64  94 SE8       29.83R
BRIDGEPORT     CLOUDY    66  66 100 S6        29.85R
DECATUR        CLOUDY    65  64  99 S8        29.84R FOG
DENTON         CLOUDY    67  64  90 S9        29.84R
MCKINNEY       CLOUDY    66  65  96 S9        29.85R
GREENVILLE     CLOUDY    66  63  88 S5        29.86R
ROCKWALL       CLOUDY    65  65 100 S8        29.84S FOG
TERRELL        CLOUDY    66  64  93 S9        29.86R
WAXAHACHIE     CLOUDY    65  65 100 SE7       29.87R
CLEBURNE       CLOUDY    66  66 100 SE8       29.87R FOG
GRANBURY       CLOUDY    66  65  95 SE6       29.85R
$$

TXZ083>090-098>101-113>116-127>130-139>142-154-155-281100-
WESTERN NORTH TEXAS

CITY           SKY/WX    TMP DP  RH WIND       PRES   REMARKS
WICHITA FALLS  CLEAR     61  60  97 CALM      29.84R
WF-KICKAPOO    CLEAR     63  60  91 SE7       29.85R
VERNON         PTCLDY    67  63  87 N6        29.85R
ABILENE        CLEAR     64  62  93 S5        29.85R
ABILENE-DYESS  CLEAR     65  60  84 SE15      29.83R
BRECKENRIDGE   CLEAR     66  65  95 S9        29.82R
GRAHAM         CLOUDY    64  64 100 SE5       29.81R
MINERAL WELLS  CLOUDY    65  64  97 S9        29.82R
STEPHENVILLE   CLOUDY    64  62  94 S3        29.88R
COMANCHE       CLEAR     62  62 100 S8        29.86R
BROWNWOOD      FOG       64  64 100 SE7       29.87R VSB<1/4
COLEMAN        FOG       63  62  98 CALM      29.87R VSB 1/4
$$

TXZ143>147-156>162-174-175-281100-
CENTRAL TEXAS

CITY           SKY/WX    TMP DP  RH WIND       PRES   REMARKS
WACO           CLOUDY    65  64  97 SE12      29.87R FOG
WACO-MCGREGOR  CLOUDY   N/A N/A N/A SE7         N/A  HAZE
HILLSBORO      CLOUDY    64  64  99 SE8       29.86R FOG
CORSICANA      CLOUDY    67  64  90 SE8       29.87R FOG
MEXIA          CLOUDY    65  64  99 S10       29.85S FOG
HEARNE         CLOUDY    65  65  97 SE7       29.88R
CAMERON        CLOUDY    65  64  99 S6        29.86S
TEMPLE         CLOUDY    65  65 100 SE10      29.87R FOG
KILLEEN        FOG       64  63  99 SE8       29.85R VSB 3/4
KILLEEN-SKYLRK LGT RAIN  65  65 100 SE7       29.87R VSB 1
FORT HOOD      CLOUDY    64  64 100 SE6       29.85R FOG
GATESVILLE     FOG       64  64 100 CALM      29.89R VSB 1/4
HAMILTON       FOG       62  62 100 S8        29.86S VSB 1/4
LAMPASAS       FOG       63  62  98 CALM      29.86R VSB 1/4
$$

TXZ095>097-106>112-122>126-135>138-148>153-164>167-281100-
EAST TEXAS

CITY           SKY/WX    TMP DP  RH WIND       PRES   REMARKS
PARIS          CLOUDY    66  57  72 S9        29.87R
SULPHUR SPRNGS CLOUDY    67  64  89 S10       29.88R
MOUNT PLEASANT CLOUDY    65  65 100 SE5       29.88S
GILMER         CLOUDY    65  64  96 SE5       29.87S THUNDER
MINEOLA        CLOUDY    66  64  94 S3        29.87S
TYLER          CLOUDY    66  62  87 S9        29.87R
LONGVIEW       CLOUDY    65  64  97 SE8       29.87R
MARSHALL       CLOUDY    63  60  93 CALM      29.91R
ATHENS         PTCLDY    61  61 100 SE3       29.86R
PALESTINE      CLEAR     63  63 100 SE5       29.88R
JACKSONVILLE   CLOUDY    64  64  98 S9        29.89R
HENDERSON      CLOUDY    63  63  98 SE3       29.89R
CENTER         FAIR      66  64  95 CALM      29.88R
NACOGDOCHES    CLOUDY    63  61  94 CALM      29.88S VSB 1
LUFKIN         CLOUDY    63  62  97 SE3       29.88R
$$

SUPPLEMENTAL OBSERVATIONS (CENTRAL)

CITY           SKY/WX    TMP DP  RH WIND       PRES   REMARKS
LAKE TEXOMA      N/A     66  61  82 S5          N/A
CADDO GRASSLND   N/A     68  64  88 S8          N/A
PAT MAYSE LAKE   N/A     66  64  94 SE9         N/A
LAKE LIMESTONE   N/A     66  64  94 S6          N/A
MCGREGOR         N/A     64  63  94 S7          N/A
TEMPLE           N/A     64  63  94 S6          N/A
$$

SUPPLEMENTAL OBSERVATIONS (WEST)

CITY           SKY/WX    TMP DP  RH WIND       PRES   REMARKS
MILLERS CREEK    N/A     64  61  88 NW3G13      N/A
POSSUM KINGDOM   N/A     64  61  88 SE6         N/A
LBJ GRASSLAND    N/A     64  63  94 SE9         N/A
GRANBURY         N/A     64  63  94 SE7         N/A
COMANCHE         N/A    N/A N/A N/A S8          N/A
HAMBY            N/A     64  61  88 S9          N/A
IVIE RESERVOIR   N/A     64  61  88 E3          N/A
COLORADO BEND    N/A     66  64  94 SW3         N/A
$$

SUPPLEMENTAL OBSERVATIONS (EAST)

CITY           SKY/WX    TMP DP  RH WIND       PRES   REMARKS
CLARKSVILLE      N/A     66  64  94 SE3G12      N/A
TEXARKANA        N/A    N/A N/A N/A CALM        N/A
LINDEN           N/A    N/A N/A N/A CALM        N/A
GILMER           N/A     66  63  88 S5          N/A
HENDERSON        N/A     64  61  88 SE5         N/A
N SABINE NF      N/A     64  63  94 MISG        N/A
S SABINE NF      N/A     64  63  94 CALM        N/A
$$

SUPPLEMENTAL OBSERVATIONS ARE A COLLECTION OF AUTOMATED INSTRUMENTS
THAT ARE MAINTAINED BY A VARIETY OF FEDERAL AND STATE AGENCIES.
CERTAIN ELEMENTS...SUCH AS HUMIDITY VALUES AND SUSTAINED WIND
SPEEDS...MAY BE APPROXIMATED.




USA.gov is the U.S. government's official web portal to all federal, state and local government web resources and services.